Weather in Artashat

Armenia     39˚57′23″N   44˚32′43″E
temp.,
°C
wind,
m/s
gust,
m/s
humid.,
%
clouds,
%
prec.,
mm/h
press.,
hPa
HPBL,
m
1 december, tue
tue101:00+1˚nw11831 0.0 102422
04:00+1˚wnw128218 0.0 102422
07:00+1˚wnw128296 0.0 102422
10:00+5˚wnw116098 0.0 102468
13:00+8˚w1048100 0.0 1022433
16:00+9˚sw014599 0.0 1021565
19:00+4˚nnw116518 0.0 102322
22:00+3˚nw11739 0.0 102422
2 december, wed
wed201:00+2˚nw11760 0.0 102522
04:00+1˚wnw128034 0.0 102622
07:00+1˚nw12806 0.0 102622
10:00+6˚wnw11584 0.0 102673
13:00+9˚w114521 0.0 1023471
16:00+11˚w114131 0.0 1022580
19:00+5˚wnw11618 0.0 102422
22:00+4˚n11674 0.0 102522
3 december, thu
thu301:00+3˚wnw11760 0.0 102622
04:00+2˚wnw12800 0.0 102722
07:00+1˚wnw11810 0.0 102722
10:00+6˚sse00560 0.0 102842
13:00+10˚sw11440 0.0 1025532
16:00+11˚sse11410 0.0 1024761
19:00+5˚sse11590 0.0 102622
22:00+4˚ese12700 0.0 102722
4 december, fri
fri401:00+2˚nw01790 0.0 102822
04:00+1˚wnw12800 0.0 102722
07:00wnw11820 0.0 102722
10:00+6˚w005718 0.0 102746
13:00+9˚sw114687 0.0 1025602
16:00+10˚s224255 0.0 1023808
19:00+5˚ese016284 0.0 102522
22:00+4˚nne116690 0.0 102522
5 december, sat
sat501:00+2˚nw117467 0.0 102522
04:00+1˚wnw127538 0.0 102522
07:00wnw128024 0.0 102522
10:00+5˚wnw115812 0.0 102564
13:00+9˚w11440 0.0 1022476
16:00+10˚w10420 0.0 1020688
19:00+4˚nw00610 0.0 102322
22:00+3˚nne01710 0.0 102422